Weather History for KPHP - October, 2014

Change the Weather History Date:

Saturday, October 11, 2014

  Actual Average Record
Temperature  
Mean Temperature 57 °F 51 °F  
Max Temperature 77 °F 66 °F 90 °F (1953)
Min Temperature 37 °F 36 °F 19 °F (1948)
Degree Days  
Heating Degree Days 8 14  
Month to date heating degree days 148 136  
Since 1 July heating degree days 339 322  
Cooling Degree Days 0 0  
Month to date cooling degree days 0 0  
Year to date cooling degree days 649 814  
Growing Degree Days 6 (Base 50)    
Moisture  
Dew Point 41 °F    
Average Humidity 58    
Maximum Humidity 85    
Minimum Humidity 31    
Precipitation  
Precipitation 0.00 in 0.05 in 0.22 in (2008)
Month to date precipitation 0.03 0.56  
Year to date precipitation 15.73 15.43  
Sea Level Pressure  
Sea Level Pressure 29.83 in    
Wind  
Wind Speed 9 mph (SE)    
Max Wind Speed 23 mph    
Max Gust Speed 30 mph    
Visibility 10 miles    
Events      
T = Trace of Precipitation, MM = Missing Value Source: NWS Daily Summary

Daily Weather History Graph

Daily Weather History Graph

Search for Another Location

Airport or City:

Trip Planner

Search our weather history database for the weather conditions in past years. The results will help you decide how hot, cold, wet, or windy it might be!

Date:

Astronomy

Oct. 11, 2014 Rise Set
Actual Time 6:56 AM MDT 6:09 PM MDT
Civil Twilight 6:27 AM MDT 6:38 PM MDT
Nautical Twilight 5:53 AM MDT 7:11 PM MDT
Astronomical Twilight 5:20 AM MDT 7:45 PM MDT
Moon 8:32 PM MDT (10/11) 10:28 AM MDT (10/11)
Length of Visible Light 12h 11m
Length of Day
11h 13m
Waning Gibbous, 87% of the Moon is Illuminated
Oct 11
Waning Gibbous
Oct 15
Last Quarter
Oct 23
New
Oct 30
First Quarter
Nov 6
Full

Hourly Weather History & Observations

Time (MDT) Temp. Windchill Dew Point Humidity Pressure Visibility Wind Dir Wind Speed Gust Speed Precip Events Conditions
12:55 AM 39.9 °F 35.1 °F 33.1 °F 77% 30.06 in 10.0 mi East 6.9 mph - N/A   Clear
1:55 AM 39.0 °F 35.7 °F 33.1 °F 79% 30.04 in 10.0 mi East 4.6 mph - N/A   Clear
2:55 AM 39.9 °F 35.8 °F 35.1 °F 83% 30.02 in 10.0 mi ESE 5.8 mph - N/A   Clear
3:55 AM 37.9 °F 33.5 °F 34.0 °F 86% 30.00 in 10.0 mi East 5.8 mph - N/A   Clear
4:55 AM 37.9 °F 33.5 °F 34.0 °F 86% 29.99 in 10.0 mi East 5.8 mph - N/A   Clear
5:55 AM 42.1 °F 39.2 °F 36.0 °F 79% 29.99 in 10.0 mi ESE 4.6 mph - N/A   Clear
6:55 AM 39.0 °F 36.8 °F 36.0 °F 89% 29.99 in 10.0 mi ESE 3.5 mph - N/A   Clear
7:55 AM 45.0 °F 43.5 °F 39.9 °F 82% 29.98 in 10.0 mi SE 3.5 mph - N/A   Clear
8:55 AM 54.0 °F - 44.1 °F 69% 29.96 in 10.0 mi South 4.6 mph - N/A   Clear
9:55 AM 63.0 °F - 45.0 °F 52% 29.94 in 10.0 mi South 15.0 mph 20.7 mph N/A   Clear
10:55 AM 69.1 °F - 46.0 °F 44% 29.90 in 10.0 mi South 18.4 mph 24.2 mph N/A   Clear
11:55 AM 71.1 °F - 44.1 °F 38% 29.87 in 10.0 mi South 21.9 mph 29.9 mph N/A   Clear
12:55 PM 73.9 °F - 44.1 °F 34% 29.83 in 10.0 mi South 15.0 mph - N/A   Clear
1:55 PM 75.9 °F - 43.0 °F 31% 29.78 in 10.0 mi South 18.4 mph 25.3 mph N/A   Clear
2:55 PM 75.9 °F - 43.0 °F 31% 29.75 in 10.0 mi South 17.3 mph 25.3 mph N/A   Clear
3:55 PM 73.9 °F - 43.0 °F 33% 29.73 in 10.0 mi South 19.6 mph - N/A   Clear
4:55 PM 73.0 °F - 44.1 °F 35% 29.70 in 10.0 mi SSE 11.5 mph - N/A   Clear
5:55 PM 69.1 °F - 43.0 °F 39% 29.68 in 10.0 mi SE 10.4 mph - N/A   Clear
6:55 PM 61.0 °F - 44.1 °F 54% 29.69 in 10.0 mi East 5.8 mph - N/A   Clear
7:55 PM 62.1 °F - 44.1 °F 52% 29.66 in 10.0 mi SE 5.8 mph - N/A   Clear
8:55 PM 60.1 °F - 45.0 °F 57% 29.64 in 10.0 mi Variable 3.5 mph - N/A   Clear
9:55 PM 57.0 °F - 45.0 °F 64% 29.62 in 10.0 mi Calm Calm - N/A   Clear
10:55 PM 55.9 °F - 44.1 °F 64% 29.59 in 10.0 mi SSE 6.9 mph - N/A   Clear
11:55 PM 55.0 °F - 44.1 °F 67% 29.56 in 10.0 mi South 4.6 mph - N/A   Clear